Location: Rio Negrinho
(26.2394°S, 49.4999°W)
Time: 12:23:04
(UTC+00:00)

NOAA 6 - Pass Details

Date: 04 October 2020
Orbit: 773 x 786 km, 98.7° (Epoch: 26 October)

Event Time Altitude Azimuth Distance (km) Brightness Sun altitude
Rises 07:04:42 0° 65° (ENE) 3,261 7.9 -24.7°
Reaches altitude 10° 07:09:35 10° 107° (ESE) 2,341 7.6 -23.7°
Maximum altitude 07:10:11 10° 114° (ESE) 2,329 7.6 -23.6°
Drops below altitude 10° 07:10:46 10° 120° (ESE) 2,343 7.6 -23.4°
Sets 07:15:40 0° 162° (SSE) 3,279 7.8 -22.4°
